This is the latest recevied weather packets stored in our database for station/object KB2SKP. If no packets are shown the sender has not sent any weather packets the latest 10 day(s).
| Time | Temp. | Humidity | Pressure | Rain* | Wind** | Luminosity | Snow |
|---|---|---|---|---|---|---|---|
| 1777899683 | 14.44° C | 58% | 1011.6 hPa | 0 mm | - | 39 W/m² | - |
| 1777899381 | 14.44° C | 59% | 1011.8 hPa | 0 mm | - | 29 W/m² | - |
| 1777899079 | 13.89° C | 59% | 1011.9 hPa | 0 mm | - | 39 W/m² | - |
| 1777898775 | 13.89° C | 60% | 1012 hPa | 0 mm | - | 41 W/m² | - |
| 1777898473 | 13.33° C | 61% | 1011.8 hPa | 0 mm | - | 31 W/m² | - |
| 1777898171 | 13.33° C | 62% | 1011.9 hPa | 0 mm | - | 30 W/m² | - |
| 1777897868 | 13.33° C | 63% | 1011.9 hPa | 0 mm | - | 39 W/m² | - |
| 1777897564 | 12.78° C | 64% | 1011.8 hPa | 0 mm | - | 13 W/m² | - |
| 1777897259 | 12.78° C | 65% | 1012 hPa | 0 mm | - | 25 W/m² | - |
| 1777896955 | 12.78° C | 66% | 1011.9 hPa | 0 mm | - | 12 W/m² | - |
| 1777896652 | 12.22° C | 65% | 1012 hPa | 0 mm | - | 7 W/m² | - |
| 1777896349 | 12.22° C | 66% | 1012 hPa | 0 mm | - | 22 W/m² | - |
| 1777896048 | 12.22° C | 66% | 1012.2 hPa | 0 mm | - | 20 W/m² | - |
| 1777895745 | 12.22° C | 67% | 1012.3 hPa | 0 mm | - | 30 W/m² | - |
| 1777895442 | 12.22° C | 66% | 1012.1 hPa | 0 mm | - | 38 W/m² | - |
| 1777895140 | 12.22° C | 66% | 1012.1 hPa | 0 mm | - | 39 W/m² | - |
| 1777894837 | 12.22° C | 68% | 1012.3 hPa | 0 mm | - | 35 W/m² | - |
| 1777894534 | 12.22° C | 67% | 1012.3 hPa | 0 mm | - | 32 W/m² | - |
| 1777894232 | 11.67° C | 67% | 1012.2 hPa | 0 mm | - | 33 W/m² | - |
| 1777893928 | 11.67° C | 67% | 1012.3 hPa | 0 mm | - | 25 W/m² | - |
| 1777893624 | 11.67° C | 67% | 1012.2 hPa | 0 mm | - | 26 W/m² | - |
| 1777893321 | 11.67° C | 68% | 1012.3 hPa | 0 mm | - | 23 W/m² | - |
| 1777893017 | 11.67° C | 67% | 1012.3 hPa | 0 mm | - | 20 W/m² | - |
| 1777892715 | 11.67° C | 67% | 1012.2 hPa | 0 mm | - | 5 W/m² | - |
| 1777892410 | 11.67° C | 66% | 1012.4 hPa | 0 mm | - | 14 W/m² | - |
* Rain latest hour (hover to see other rain measurements)
** Current wind speed in m/s (hover to see current wind gust speed)